• In Netherlands
  • List of Countries
  • For 7 days
  • Water Temperature
  • Satellite Maps
  • Weather Map
  • Weather Widgets
  • user-avatar
    Login

    Hourly Weather Innsbruck

    Today, 29 April, Saturday

    Time Temperature Precipitation Wind Pressure Humidity
    00:00 -11°C° 0.1 mm 1 mps 590 mmHg 96%
    01:00 -10°C° 0 mm 2 mps 590 mmHg 95%
    02:00 -10°C° 0 mm 1 mps 590 mmHg 94%
    03:00 -10°C° 0 mm 1 mps 590 mmHg 94%
    04:00 -11°C° 0 mm 1 mps 590 mmHg 94%
    05:00 -9°C° 0 mm 1 mps 591 mmHg 93%
    06:00 -8°C° 0 mm 1 mps 591 mmHg 91%
    07:00 -6°C° 0 mm 1 mps 592 mmHg 90%
    08:00 -3°C° 0 mm 1 mps 593 mmHg 88%
    09:00 -1°C° 0 mm 1 mps 593 mmHg 86%
    10:00 -1°C° 0 mm 0 mps 594 mmHg 84%
    11:00 0°C° 0 mm 0 mps 594 mmHg 84%
    12:00 +2°C° 0 mm 1 mps 594 mmHg 83%
    13:00 +3°C° 0 mm 1 mps 594 mmHg 83%
    14:00 +2°C° 0 mm 1 mps 594 mmHg 83%
    15:00 +2°C° 0 mm 1 mps 594 mmHg 84%
    16:00 +2°C° 0 mm 1 mps 594 mmHg 85%
    17:00 +1°C° 0 mm 1 mps 593 mmHg 88%
    18:00 -1°C° 0 mm 1 mps 592 mmHg 92%
    19:00 -4°C° 0 mm 0 mps 591 mmHg 95%
    20:00 -3°C° 0 mm 1 mps 591 mmHg 96%
    21:00 -4°C° 0 mm 1 mps 591 mmHg 96%
    22:00 -6°C° 0 mm 1 mps 591 mmHg 97%
    23:00 -6°C° 0 mm 1 mps 591 mmHg 96%

    Tomorrow, 30 April, Sunday

    Time Temperature Precipitation Wind Pressure Humidity
    00:00 -6°C° 0 mm 1 mps 591 mmHg 96%
    01:00 -7°C° 0 mm 2 mps 591 mmHg 95%
    02:00 -7°C° 0 mm 2 mps 591 mmHg 96%
    03:00 -7°C° 0 mm 2 mps 591 mmHg 96%
    04:00 -7°C° 0 mm 2 mps 591 mmHg 96%
    05:00 -6°C° 0 mm 2 mps 591 mmHg 94%
    06:00 -4°C° 0 mm 2 mps 592 mmHg 92%
    07:00 -3°C° 0 mm 2 mps 593 mmHg 90%
    08:00 -1°C° 0 mm 2 mps 593 mmHg 87%
    09:00 +2°C° 0 mm 2 mps 593 mmHg 83%
    10:00 +4°C° 0 mm 2 mps 594 mmHg 80%
    11:00 +4°C° 0 mm 2 mps 594 mmHg 76%
    12:00 +5°C° 0 mm 2 mps 594 mmHg 72%
    13:00 +6°C° 0 mm 2 mps 594 mmHg 68%
    14:00 +6°C° 0 mm 2 mps 593 mmHg 68%
    15:00 +6°C° 0 mm 2 mps 593 mmHg 67%
    16:00 +6°C° 0 mm 2 mps 593 mmHg 67%
    17:00 +4°C° 0 mm 2 mps 592 mmHg 75%
    18:00 +2°C° 0 mm 2 mps 591 mmHg 83%
    19:00 -1°C° 0 mm 2 mps 590 mmHg 92%
    20:00 -2°C° 0 mm 2 mps 590 mmHg 93%
    21:00 -2°C° 0 mm 2 mps 590 mmHg 94%
    22:00 -3°C° 0 mm 2 mps 590 mmHg 95%
    23:00 -3°C° 0 mm 2 mps 590 mmHg 94%

    Day after tomorrow, 1 May, Monday

    Time Temperature Precipitation Wind Pressure Humidity
    00:00 -4°C° 0 mm 2 mps 589 mmHg 94%
    01:00 -4°C° 0 mm 2 mps 589 mmHg 93%
    02:00 -4°C° 0 mm 2 mps 589 mmHg 93%
    03:00 -4°C° 0 mm 2 mps 589 mmHg 93%
    04:00 -5°C° 0 mm 2 mps 589 mmHg 92%
    05:00 -4°C° 0 mm 2 mps 589 mmHg 88%
    06:00 -3°C° 0 mm 2 mps 590 mmHg 85%
    07:00 -1°C° 0 mm 2 mps 590 mmHg 81%
    08:00 +1°C° 0 mm 2 mps 591 mmHg 77%
    09:00 +2°C° 0 mm 2 mps 592 mmHg 73%
    10:00 +4°C° 0 mm 2 mps 593 mmHg 69%
    11:00 +3°C° 0.9 mm 2 mps 592 mmHg 75%
    12:00 +2°C° 0.9 mm 2 mps 592 mmHg 81%
    13:00 +1°C° 0.9 mm 2 mps 592 mmHg 86%
    14:00 -1°C° 2.2 mm 2 mps 592 mmHg 89%
    15:00 -2°C° 2.2 mm 2 mps 592 mmHg 93%
    16:00 -3°C° 2.2 mm 2 mps 592 mmHg 96%
    17:00 -4°C° 1.4 mm 2 mps 592 mmHg 96%
    18:00 -5°C° 1.4 mm 2 mps 592 mmHg 97%
    19:00 -5°C° 1.4 mm 2 mps 592 mmHg 97%
    20:00 -6°C° 0.9 mm 2 mps 592 mmHg 97%
    21:00 -6°C° 0.9 mm 2 mps 592 mmHg 97%
    22:00 -6°C° 0.9 mm 2 mps 592 mmHg 97%
    23:00 -6°C° 0.5 mm 2 mps 592 mmHg 97%

    2 May, Tuesday

    Time Temperature Precipitation Wind Pressure Humidity
    00:00 -6°C° 0.5 mm 1 mps 592 mmHg 97%
    01:00 -6°C° 0.5 mm 1 mps 592 mmHg 97%
    02:00 -6°C° 0.3 mm 1 mps 592 mmHg 97%
    03:00 -6°C° 0.3 mm 1 mps 592 mmHg 97%
    04:00 -6°C° 0.3 mm 1 mps 592 mmHg 97%
    05:00 -6°C° 0.1 mm 1 mps 592 mmHg 96%
    06:00 -4°C° 0.1 mm 1 mps 593 mmHg 96%
    07:00 -3°C° 0.1 mm 1 mps 593 mmHg 96%
    08:00 -2°C° 0 mm 1 mps 593 mmHg 95%
    09:00 -2°C° 0 mm 0 mps 594 mmHg 95%
    10:00 0°C° 0 mm 0 mps 594 mmHg 95%
    11:00 +1°C° 0.1 mm 1 mps 594 mmHg 94%
    12:00 +2°C° 0.1 mm 1 mps 594 mmHg 92%
    13:00 +2°C° 0.1 mm 1 mps 594 mmHg 91%
    14:00 +3°C° 0.1 mm 1 mps 594 mmHg 91%
    15:00 +3°C° 0.1 mm 1 mps 594 mmHg 91%
    16:00 +3°C° 0.1 mm 1 mps 594 mmHg 91%
    17:00 +2°C° 0.1 mm 1 mps 593 mmHg 92%
    18:00 +1°C° 0.1 mm 1 mps 593 mmHg 94%
    19:00 0°C° 0.1 mm 1 mps 592 mmHg 95%
    20:00 -2°C° 0.1 mm 2 mps 592 mmHg 96%
    21:00 -3°C° 0.1 mm 2 mps 592 mmHg 96%
    22:00 -3°C° 0.1 mm 2 mps 592 mmHg 96%
    23:00 -3°C° 0.1 mm 2 mps 592 mmHg 96%

    3 May, Wednesday

    Time Temperature Precipitation Wind Pressure Humidity
    00:00 -3°C° 0.1 mm 2 mps 591 mmHg 96%
    01:00 -3°C° 0.1 mm 2 mps 591 mmHg 96%
    02:00 -3°C° 0.1 mm 2 mps 591 mmHg 96%
    03:00 -3°C° 0.1 mm 2 mps 591 mmHg 96%
    04:00 -3°C° 0.1 mm 2 mps 591 mmHg 96%
    05:00 -3°C° 0.5 mm 2 mps 591 mmHg 96%
    06:00 -1°C° 0.5 mm 1 mps 591 mmHg 96%
    07:00 0°C° 0.5 mm 1 mps 591 mmHg 96%
    08:00 0°C° 1.3 mm 1 mps 592 mmHg 95%
    09:00 0°C° 1.3 mm 1 mps 592 mmHg 95%
    10:00 0°C° 1.3 mm 1 mps 592 mmHg 95%
    11:00 0°C° 1.1 mm 1 mps 592 mmHg 94%
    12:00 +1°C° 1.1 mm 1 mps 592 mmHg 94%
    13:00 +1°C° 1.1 mm 1 mps 592 mmHg 93%
    14:00 +1°C° 0.4 mm 1 mps 592 mmHg 92%
    15:00 +2°C° 0.4 mm 1 mps 593 mmHg 92%
    16:00 +2°C° 0.4 mm 1 mps 593 mmHg 91%
    17:00 +1°C° 0.3 mm 1 mps 592 mmHg 93%
    18:00 0°C° 0.3 mm 1 mps 592 mmHg 94%
    19:00 -1°C° 0.3 mm 1 mps 592 mmHg 96%
    20:00 -1°C° 0.3 mm 1 mps 592 mmHg 96%
    21:00 -2°C° 0.3 mm 1 mps 592 mmHg 96%
    22:00 -3°C° 0.3 mm 1 mps 592 mmHg 96%
    23:00 -3°C° 0.3 mm 1 mps 592 mmHg 96%

    4 May, Thursday

    Time Temperature Precipitation Wind Pressure Humidity
    00:00 -3°C° 0.3 mm 1 mps 591 mmHg 96%
    01:00 -3°C° 0.3 mm 1 mps 591 mmHg 96%
    02:00 -3°C° 0.3 mm 1 mps 591 mmHg 96%
    03:00 -3°C° 0.3 mm 1 mps 591 mmHg 96%
    04:00 -4°C° 0.3 mm 1 mps 591 mmHg 96%
    05:00 -3°C° 0.2 mm 1 mps 591 mmHg 95%
    06:00 -2°C° 0.2 mm 1 mps 592 mmHg 94%
    07:00 -2°C° 0.2 mm 0 mps 592 mmHg 93%
    08:00 0°C° 0.1 mm 0 mps 593 mmHg 91%
    09:00 +1°C° 0.1 mm 0 mps 593 mmHg 89%
    10:00 +2°C° 0.1 mm 0 mps 593 mmHg 87%
    11:00 +3°C° 0.2 mm 0 mps 593 mmHg 86%
    12:00 +4°C° 0.2 mm 1 mps 593 mmHg 86%
    13:00 +4°C° 0.2 mm 1 mps 593 mmHg 85%
    14:00 +4°C° 0.6 mm 1 mps 593 mmHg 86%
    15:00 +4°C° 0.6 mm 1 mps 593 mmHg 87%
    16:00 +4°C° 0.6 mm 1 mps 593 mmHg 88%
    17:00 +3°C° 0.6 mm 1 mps 592 mmHg 90%
    18:00 +2°C° 0.6 mm 1 mps 592 mmHg 93%
    19:00 0°C° 0.6 mm 0 mps 592 mmHg 96%
    20:00 -1°C° 0.3 mm 0 mps 591 mmHg 97%
    21:00 -2°C° 0.3 mm 0 mps 591 mmHg 97%
    22:00 -2°C° 0.3 mm 0 mps 591 mmHg 98%
    23:00 -3°C° 0.1 mm 0 mps 591 mmHg 98%
    Show more